| time (UTC) | temp F | wind direction | speed MPH | gust MPH | rain 1hr in | rain 24hr in | rain mn in | humidity % | barometer mb |
| 20260508034534 | 59 | 143 | 6.0 | 17.0 | 0.00 | 0.00 | 0.00 | 33 | 1019.1 |
| 20260508033030 | 60 | 152 | 5.0 | 10.0 | 0.00 | 0.00 | 0.00 | 31 | 1018.9 |
| 20260508031532 | 62 | 160 | 4.0 | 12.0 | 0.00 | 0.00 | 0.00 | 27 | 1018.8 |
| 20260508030143 | 62 | 164 | 4.0 | 8.0 | 0.00 | 0.00 | 0.00 | 26 | 1018.9 |
| 20260508024534 | 65 | 162 | 3.0 | 10.0 | 0.00 | 0.00 | 0.00 | 26 | 1018.8 |
| 20260508023034 | 66 | 169 | 7.0 | 24.0 | 0.00 | 0.00 | 0.00 | 25 | 1018.7 |
| 20260508021608 | 68 | 210 | 3.0 | 12.0 | 0.00 | 0.00 | 0.00 | 25 | 1018.7 |
| 20260508020034 | 69 | 193 | 4.0 | 19.0 | 0.00 | 0.00 | 0.00 | 24 | 1018.6 |
| 20260508013031 | 71 | 189 | 5.0 | 17.0 | 0.00 | 0.00 | 0.00 | 24 | 1018.6 |
| 20260508011607 | 72 | 223 | 7.0 | 19.0 | 0.00 | 0.00 | 0.00 | 23 | 1018.7 |
| 20260508010036 | 72 | 215 | 9.0 | 21.0 | 0.00 | 0.00 | 0.00 | 22 | 1018.7 |
| 20260508004651 | 72 | 215 | 6.0 | 18.0 | 0.00 | 0.00 | 0.00 | 21 | 1018.6 |
| 20260508003033 | 73 | 225 | 4.0 | 17.0 | 0.00 | 0.00 | 0.00 | 21 | 1018.5 |
| 20260508000038 | 74 | 239 | 9.0 | 21.0 | 0.00 | 0.00 | 0.00 | 20 | 1018.5 |
| 20260507234542 | 74 | 211 | 6.0 | 15.0 | 0.00 | 0.00 | 0.00 | 21 | 1018.5 |
| 20260507234536 | 75 | 230 | 5.0 | 18.0 | 0.00 | 0.00 | 0.00 | 21 | 1018.5 |
| 20260507231533 | 74 | 218 | 5.0 | 21.0 | 0.00 | 0.00 | 0.00 | 22 | 1018.7 |
| 20260507230029 | 74 | 213 | 7.0 | 18.0 | 0.00 | 0.00 | 0.00 | 22 | 1018.8 |
| 20260507224536 | 74 | 204 | 6.0 | 16.0 | 0.00 | 0.00 | 0.00 | 23 | 1018.8 |
| 20260507223106 | 73 | 196 | 7.0 | 13.0 | 0.00 | 0.00 | 0.00 | 23 | 1019.0 |
| 20260507221537 | 73 | 195 | 6.0 | 14.0 | 0.00 | 0.00 | 0.00 | 23 | 1019.2 |
| 20260507220038 | 73 | 194 | 6.0 | 15.0 | 0.00 | 0.00 | 0.00 | 24 | 1019.3 |
| 20260507214534 | 74 | 196 | 6.0 | 16.0 | 0.00 | 0.00 | 0.00 | 24 | 1019.4 |
| 20260507213037 | 73 | 190 | 5.0 | 16.0 | 0.00 | 0.00 | 0.00 | 26 | 1019.5 |
| 20260507204536 | 72 | 204 | 7.0 | 13.0 | 0.00 | 0.00 | 0.00 | 26 | 1019.8 |
| 20260507203106 | 72 | 190 | 7.0 | 15.0 | 0.00 | 0.00 | 0.00 | 26 | 1019.9 |
| 20260507201537 | 71 | 209 | 6.0 | 12.0 | 0.00 | 0.00 | 0.00 | 27 | 1020.1 |
| 20260507194535 | 70 | 202 | 6.0 | 12.0 | 0.00 | 0.00 | 0.00 | 29 | 1020.3 |
| 20260507193037 | 69 | 200 | 7.0 | 15.0 | 0.00 | 0.00 | 0.00 | 29 | 1020.5 |
| 20260507191535 | 69 | 203 | 7.0 | 13.0 | 0.00 | 0.00 | 0.00 | 31 | 1020.6 |
| 20260507190035 | 68 | 203 | 4.0 | 14.0 | 0.00 | 0.00 | 0.00 | 33 | 1020.6 |
| 20260507183147 | 66 | 205 | 5.0 | 11.0 | 0.00 | 0.00 | 0.00 | 36 | 1020.9 |
| 20260507181642 | 66 | 192 | 5.0 | 11.0 | 0.00 | 0.00 | 0.00 | 38 | 1021.0 |
| 20260507180106 | 65 | 193 | 5.0 | 9.0 | 0.00 | 0.00 | 0.00 | 39 | 1021.1 |
| 20260507174642 | 64 | 205 | 6.0 | 13.0 | 0.00 | 0.00 | 0.00 | 41 | 1021.3 |
| 20260507173033 | 63 | 211 | 5.0 | 13.0 | 0.00 | 0.00 | 0.00 | 41 | 1021.4 |
| 20260507171539 | 62 | 215 | 5.0 | 14.0 | 0.00 | 0.00 | 0.00 | 44 | 1021.5 |
| 20260507170035 | 61 | 223 | 6.0 | 12.0 | 0.00 | 0.00 | 0.00 | 46 | 1021.5 |
| 20260507164536 | 60 | 215 | 5.0 | 11.0 | 0.00 | 0.00 | 0.00 | 48 | 1021.6 |
| 20260507163037 | 60 | 207 | 6.0 | 16.0 | 0.00 | 0.00 | 0.00 | 48 | 1021.7 |
| 20260507161533 | 60 | 201 | 6.0 | 14.0 | 0.00 | 0.00 | 0.00 | 51 | 1021.8 |
| 20260507160037 | 59 | 216 | 5.0 | 11.0 | 0.00 | 0.00 | 0.00 | 52 | 1021.9 |
| 20260507154534 | 59 | 229 | 5.0 | 19.0 | 0.00 | 0.00 | 0.00 | 53 | 1021.9 |
| 20260507151536 | 58 | 233 | 4.0 | 12.0 | 0.00 | 0.00 | 0.00 | 56 | 1022.2 |
| 20260507150048 | 58 | 242 | 4.0 | 10.0 | 0.00 | 0.00 | 0.00 | 57 | 1022.2 |
| 20260507143037 | 55 | 258 | 3.0 | 11.0 | 0.00 | 0.00 | 0.00 | 67 | 1022.0 |
| 20260507141531 | 53 | 108 | 2.0 | 11.0 | 0.00 | 0.00 | 0.00 | 69 | 1021.9 |
| 20260507140035 | 52 | 217 | 3.0 | 36.0 | 0.00 | 0.00 | 0.00 | 70 | 1021.8 |
| 20260507134538 | 52 | 217 | 3.0 | 24.0 | 0.00 | 0.00 | 0.00 | 72 | 1021.8 |
| 20260507133032 | 53 | 197 | 3.0 | 13.0 | 0.00 | 0.00 | 0.00 | 72 | 1021.8 |
| 20260507131607 | 53 | 197 | 4.0 | 14.0 | 0.00 | 0.00 | 0.00 | 72 | 1021.9 |
| 20260507130031 | 53 | 186 | 5.0 | 14.0 | 0.00 | 0.00 | 0.00 | 72 | 1021.8 |
| 20260507124643 | 54 | 173 | 4.0 | 13.0 | 0.00 | 0.00 | 0.00 | 72 | 1021.9 |
| 20260507123107 | 54 | 156 | 5.0 | 22.0 | 0.00 | 0.00 | 0.00 | 73 | 1021.8 |
| 20260507121535 | 54 | 144 | 5.0 | 14.0 | 0.00 | 0.00 | 0.00 | 73 | 1021.8 |
| 20260507120031 | 54 | 144 | 7.0 | 21.0 | 0.00 | 0.00 | 0.00 | 73 | 1021.7 |
| 20260507114535 | 54 | 140 | 8.0 | 17.0 | 0.00 | 0.00 | 0.00 | 74 | 1021.6 |
| 20260507113108 | 54 | 142 | 7.0 | 19.0 | 0.00 | 0.00 | 0.00 | 74 | 1021.6 |
| 20260507110035 | 54 | 152 | 7.0 | 16.0 | 0.00 | 0.00 | 0.00 | 74 | 1021.5 |
| 20260507104648 | 55 | 154 | 8.0 | 21.0 | 0.00 | 0.00 | 0.00 | 74 | 1021.7 |
| 20260507103107 | 55 | 154 | 8.0 | 18.0 | 0.00 | 0.00 | 0.00 | 73 | 1021.7 |
| 20260507100048 | 55 | 159 | 7.0 | 18.0 | 0.00 | 0.00 | 0.00 | 72 | 1021.7 |
| 20260507094606 | 56 | 153 | 7.0 | 13.0 | 0.00 | 0.00 | 0.00 | 72 | 1021.7 |
| 20260507093037 | 56 | 159 | 6.0 | 17.0 | 0.00 | 0.00 | 0.00 | 72 | 1021.7 |
| 20260507091530 | 56 | 152 | 6.0 | 14.0 | 0.00 | 0.00 | 0.00 | 72 | 1021.7 |
| 20260507090036 | 56 | 138 | 6.0 | 17.0 | 0.00 | 0.00 | 0.00 | 72 | 1021.7 |
| 20260507084535 | 56 | 142 | 9.0 | 55.0 | 0.00 | 0.00 | 0.00 | 73 | 1021.9 |
| 20260507083035 | 56 | 150 | 13.0 | 108.0 | 0.00 | 0.00 | 0.00 | 73 | 1021.9 |
| 20260507080035 | 56 | 155 | 8.0 | 18.0 | 0.00 | 0.00 | 0.00 | 73 | 1022.0 |
| 20260507074534 | 57 | 155 | 6.0 | 14.0 | 0.00 | 0.00 | 0.00 | 73 | 1022.0 |
| 20260507073033 | 57 | 147 | 7.0 | 15.0 | 0.00 | 0.00 | 0.00 | 73 | 1022.0 |
| 20260507071534 | 57 | 146 | 7.0 | 14.0 | 0.00 | 0.00 | 0.00 | 73 | 1022.0 |
| 20260507064537 | 58 | 143 | 7.0 | 13.0 | 0.00 | 0.00 | 0.00 | 73 | 1022.0 |
| 20260507063030 | 57 | 148 | 7.0 | 16.0 | 0.00 | 0.00 | 0.00 | 73 | 1022.0 |
| 20260507054535 | 57 | 147 | 5.0 | 10.0 | 0.00 | 0.00 | 0.00 | 74 | 1022.3 |
| 20260507053036 | 58 | 140 | 4.0 | 9.0 | 0.00 | 0.00 | 0.00 | 72 | 1022.3 |
| 20260507051535 | 58 | 147 | 4.0 | 13.0 | 0.00 | 0.00 | 0.00 | 71 | 1022.4 |
| 20260507050037 | 58 | 167 | 4.0 | 15.0 | 0.00 | 0.00 | 0.00 | 71 | 1022.4 |
| 20260507044534 | 58 | 144 | 3.0 | 8.0 | 0.00 | 0.00 | 0.00 | 70 | 1022.3 |
| 20260507041535 | 59 | 166 | 3.0 | 8.0 | 0.00 | 0.00 | 0.00 | 67 | 1022.1 |
| 20260507040046 | 60 | 196 | 3.0 | 9.0 | 0.00 | 0.00 | 0.00 | 66 | 1022.0 |